Miscellaneous Local Product
Issued by NWS North Platte, NE

Home | Current Version | Previous Version | Text Only | Print | Product List | Glossary On
Versions: 1 2 3 4 5 6 7 8 9 10 11 12 13 14 15 16 17 18 19 20 21 22 23 24 25 26 27 28 29 30 31 32 33 34 35 36 37 38 39 40 41 42 43 44 45 46 47 48 49 50
000
AXUS43 KLBF 220810
MISLBF


WESTERN AND NORTH CENTRAL NEBRASKA HOURLY WEATHER ROUNDUP
NATIONAL WEATHER SERVICE NORTH PLATTE NE
300 AM CDT WED OCT 22 2014

***STATIONS NOT REPORTING VARIABLES SUCH AS SKY/WEATHER OR
PRESSURE ARE PROVIDED BY THE NEBRASKA DEPARTMENT OF
ROADS...RAWS...AND APRS NETWORKS...AND ARE NOT UNDER
NATIONAL WEATHER SERVICE QUALITY CONTROL***

...OBSERVATIONS IN AND NEAR THE EASTERN PANHANDLE OF NEBRASKA...

CITY           SKY/WX    TMP DP  RH WIND       PRES   REMARKS
PINE RIDGE     CLOUDY    58  47  66 W5        29.86R
CHADRON        LGT RAIN  61  49  64 SW14G28   29.90R
ALLIANCE       CLOUDY    52  43  71 W12       29.91R
SIDNEY         CLOUDY    57  45  64 NW14      29.94S
WHITECLAY        N/A     56  46  69 CALM        N/A
RUSHVILLE        N/A     53  45  73 W14         N/A
CRESCENT LAKE    N/A     55  42  62 W6          N/A
LISCO            N/A     55  42  60 S3          N/A
BIG SPRINGS      N/A     59  47  63 CALM        N/A
LEWELLEN         N/A     61  46  56 SW7         N/A
$$

...OBSERVATIONS IN NORTH CENTRAL NEBRASKA...

CITY           SKY/WX    TMP DP  RH WIND       PRES   REMARKS
VALENTINE      PTCLDY    62  54  74 S12G23    29.85S
THEDFORD       PTCLDY    64  53  65 S13       29.90R
AINSWORTH      CLEAR     56  52  86 S15       29.88S
O`NEILL        CLEAR     58  47  67 SE15      29.93S
ORD            CLEAR     55  50  83 SE7       29.94S
BROKEN BOW     PTCLDY    56  53  90 SE6       29.93S
BROWNLEE         N/A     62  56  82 S13         N/A
SPRINGVIEW       N/A     61  54  76 CALM        N/A
BREWSTER         N/A     62  58  87 S10         N/A
ROSE             N/A     57  55  94 E9          N/A
NEWPORT          N/A     59  53  80 S10         N/A
SARGENT          N/A     52  50  92 CALM        N/A
COMSTOCK         N/A     62  58  88 S13         N/A
CHAMBERS         N/A     55  45  70 S8          N/A
$$

...OBSERVATIONS IN SOUTHWEST NEBRASKA AND FAR NORTHEAST COLORADO...

CITY           SKY/WX    TMP DP  RH WIND       PRES   REMARKS
WRAY           FAIR      61  47  60 MISG      29.90S
HOLYOKE        FAIR      54  45  71 NW6       29.92R
IMPERIAL       MOCLDY    60  46  59 S12       29.90F
OGALLALA       CLOUDY    59  48  67 W6        29.91S
MCCOOK         CLEAR     62  51  67 S13G21    29.93S
LEXINGTON      CLEAR     59  54  83 SE8       29.95S
PAXTON           N/A     59  51  74 S12         N/A
SUTHERLAND       N/A     59  50  74 S13         N/A
BRADY            N/A     60  52  74 CALM        N/A
GOTHENBURG       N/A     62  51  67 SE6         N/A
CALLAWAY         N/A     57  54  89 S10         N/A
$$

...SOME WEATHER OBSERVATIONS FROM AROUND THE REGION...

CITY           SKY/WX    TMP DP  RH WIND       PRES   REMARKS
DENVER         CLOUDY    58  42  55 E3        29.98F
LARAMIE        CLOUDY    41  37  86 SW6       30.07S
CHEYENNE       MOCLDY    49  41  74 NW3       30.03F
SCOTTSBLUFF    LGT RAIN  54  51  90 NW8       29.93F
RAPID CITY     CLOUDY    63  42  46 N14       29.82R
PIERRE         MOCLDY    61  52  72 SE10      29.76S
WINNER         FAIR      65  54  67 S25G33    29.80F
SIOUX FALLS    CLEAR     53  44  71 SE18      30.02R
OMAHA          CLOUDY    57  44  62 SE16      30.09R
GRAND ISLAND   CLEAR     58  52  80 SE12      29.99S
KANSAS CITY    PTCLDY    54  45  71 SE12      30.13S
WICHITA        PTCLDY    63  58  83 S9        30.05R
HAYS           CLEAR     55  48  76 S7        30.00S
LIBERAL        PTCLDY    57  46  67 S12       30.04S
GOODLAND       PTCLDY    52  47  83 S12       29.95F
$$



USA.gov is the U.S. government's official web portal to all federal, state and local government web resources and services.